GW1785 Weather Reports


time (UTC)temp
C
wind
direction
speed
KPH
gust
KPH
rain 1hr
cm
rain 24hr
cm
rain mn
cm
humidity
%
barometer
mb
20260504173101 12 335 12.9 22.5 0.00 0.00 0.00 45 1016.0
20260504173001 12 340 11.3 22.5 0.00 0.00 0.00 47 1013.6
20260504171601 11 285 11.3 22.5 0.00 0.00 0.00 47 1016.0
20260504160103 10 301 8.0 17.7 0.00 0.00 0.00 51 1016.1
20260504150112 9 312 8.0 22.5 0.00 0.00 0.00 58 1013.8
20260504140111 7 287 4.8 9.7 0.00 0.00 0.00 65 1016.4
20260504081607 10 11 4.8 16.1 0.00 0.00 0.00 50 1016.1
20260504060123 12 60 11.3 27.4 0.00 0.00 0.00 43 1012.3
20260504050114 13 49 3.2 11.3 0.00 0.00 0.00 41 1010.5
20260504044558 13 49 6.4 14.5 0.00 0.00 0.00 42 1010.1
20260504043109 13 48 3.2 9.7 0.00 0.00 0.00 41 1009.8
20260504041557 13 71 4.8 11.3 0.00 0.00 0.00 39 1009.5
20260504040106 13 71 3.2 8.0 0.00 0.00 0.00 36 1009.3
20260504034602 12 29 3.2 8.0 0.00 0.00 0.00 37 1009.0
20260504033105 13 0 0.0 6.4 0.00 0.00 0.00 35 1008.4
20260504031604 13 57 0.0 4.8 0.00 0.00 0.00 33 1008.1
20260504030100 15 0 0.0 3.2 0.00 0.00 0.00 30 1007.8
20260504024601 17 0 0.0 3.2 0.00 0.00 0.00 30 1007.6
20260504023058 18 46 3.2 8.0 0.00 0.00 0.00 26 1007.4
20260504021600 19 46 3.2 12.9 0.00 0.00 0.00 26 1007.5
20260504020058 20 31 3.2 12.9 0.00 0.00 0.00 25 1007.4
20260504014603 22 42 4.8 14.5 0.00 0.00 0.00 22 1007.3
20260504013112 22 45 9.7 24.1 0.00 0.00 0.00 21 1007.4
20260504011559 23 306 8.0 17.7 0.00 0.00 0.00 18 1007.4
20260504010115 23 311 11.3 19.3 0.00 0.00 0.00 18 1007.5
20260504004600 23 317 8.0 17.7 0.00 0.00 0.00 19 1007.7
20260504003058 24 311 9.7 19.3 0.00 0.00 0.00 20 1007.9
20260504001603 24 333 9.7 20.9 0.00 0.00 0.00 19 1007.9
20260504000059 23 345 6.4 17.7 0.00 0.00 0.00 18 1007.9
20260503234557 24 302 9.7 37.0 0.00 0.00 0.00 20 1008.1
20260503233103 24 323 8.0 17.7 0.00 0.00 0.00 20 1008.1
20260503231602 23 316 12.9 19.3 0.00 0.00 0.00 21 1008.2
20260503230058 24 323 9.7 17.7 0.00 0.00 0.00 19 1008.4
20260503224557 23 328 14.5 25.7 0.00 0.00 0.00 19 1008.6
20260503223059 24 327 8.0 27.4 0.00 0.00 0.00 18 1008.9
20260503221601 23 340 14.5 24.1 0.00 0.00 0.00 18 1009.1
20260503220105 23 293 11.3 24.1 0.00 0.00 0.00 18 1009.3
20260503214559 23 333 12.9 22.5 0.00 0.00 0.00 19 1009.5
20260503213057 23 321 9.7 22.5 0.00 0.00 0.00 18 1009.7
20260503211559 23 257 9.7 29.0 0.00 0.00 0.00 17 1009.9
20260503210059 23 333 12.9 20.9 0.00 0.00 0.00 19 1010.1
20260503204609 23 321 12.9 27.4 0.00 0.00 0.00 19 1010.4
20260503203107 23 302 8.0 20.9 0.00 0.00 0.00 21 1010.6
20260503201558 22 321 12.9 29.0 0.00 0.00 0.00 21 1010.8
20260503200057 22 17 12.9 24.1 0.00 0.00 0.00 22 1011.0
20260503194622 22 279 12.9 19.3 0.00 0.00 0.00 22 1011.2
20260503193100 22 311 14.5 29.0 0.00 0.00 0.00 26 1011.3
20260503191604 21 312 11.3 24.1 0.00 0.00 0.00 25 1011.8
20260503190108 21 355 6.4 25.7 0.00 0.00 0.00 27 1011.9
20260503184601 21 342 12.9 29.0 0.00 0.00 0.00 27 1012.1
20260503183106 21 352 3.2 20.9 0.00 0.00 0.00 27 1012.2
20260503181600 20 309 11.3 24.1 0.00 0.00 0.00 27 1012.4
20260503180108 21 327 14.5 25.7 0.00 0.00 0.00 27 1012.4
20260503174559 20 327 11.3 22.5 0.00 0.00 0.00 28 1012.7